Domov               UVHVVR             MKGP            O straneh              
ZDRAVSTVENO VARSTVO RASTLIN
  MREŽA AGROMET. POSTAJ
 ► PROGNOSTIČNA OBVESTILA
AGROMETEOROLOŠKI PODATKI -
ARSO
OBVLADOVANJE TVEGANJ ZARADI
NEUGODNIH VREMENSKIH RAZMER
  ► NARAVNE NESREČE
  ► SUŠA/MOČA
  ► NAMAKANJE
  ► ŽLED (gozdarstvo)
KARTOGRAFSKI PRIKAZI
SPLETNE POVEZAVE
PROJEKTI IN PUBLIKACIJE

AGROMETEOROLOŠKA MREŽA: VREMENSKE POSTAJE IN FENOLOŠKA OPAZOVANJA

Pregled podatkov za lokacijo Dutovlje, meteorološka postaja 38560

Pregled senzorjev na lokaciji

ID Ime Zadnja
vrednost
Datum
zadnje
spremembe
Tip
senzorja
2016 Padavine (mm) 0 mm 25.2.2018 12:00 Rain-O-Matic
2019 Relativna vlaga 2 m (% RH) 32,82 % RH 25.2.2018 12:00 50YA
2018 Temperatura 2 m (°C) -1,68 °C 25.2.2018 12:00 50YA

Pregled podatkov zadnjih 24 ur

Zap.
št.
Datum in čas Dutovlje
Padavine Relativna
vlaga
2
m
Temperatura
2
m
1 25.2.2018 12:30
2 25.2.2018 12:00 0 32,8 -1,7
3 25.2.2018 11:30 0 34,9 -3
4 25.2.2018 11:00 0 34,3 -3,2
5 25.2.2018 10:30 0 34,3 -3,3
6 25.2.2018 10:00 0 33,2 -3,3
7 25.2.2018 09:30 0 33,1 -3,4
8 25.2.2018 09:00 0 34,1 -3,7
9 25.2.2018 08:30 0 34,2 -4,6
10 25.2.2018 08:00 0 31,9 -4,9
11 25.2.2018 07:30 0 31 -5,1
12 25.2.2018 07:00 0 32,6 -5,2
13 25.2.2018 06:30 0 35,3 -5,2
14 25.2.2018 06:00 0 35,4 -5,1
15 25.2.2018 05:30 0 37,8 -5
16 25.2.2018 05:00 0 40,8 -5
17 25.2.2018 04:30 0 41,2 -4,9
18 25.2.2018 04:00 0 43 -4,8
19 25.2.2018 03:30 0 44,2 -4,7
20 25.2.2018 03:00 0 44,9 -4,4
21 25.2.2018 02:30 0 48,4 -4,4
22 25.2.2018 02:00 0 52 -4,3
23 25.2.2018 01:30 0 53 -4
24 25.2.2018 01:00 0 55,3 -4
25 25.2.2018 00:30 0 56,5 -3,8
26 25.2.2018 00:00 0 55,7 -3,6
27 24.2.2018 23:30 0 53,3 -3,2
28 24.2.2018 23:00 0 51,2 -2,9
29 24.2.2018 22:30 0 51,3 -2,8
30 24.2.2018 22:00 0 51,4 -2,6
31 24.2.2018 21:30 0 49,4 -2,4
32 24.2.2018 21:00 0 45,8 -2
33 24.2.2018 20:30 0 43,1 -1,7
34 24.2.2018 20:00 0 41,4 -1,5
35 24.2.2018 19:30 0 41,3 -1,3
36 24.2.2018 19:00 0 38,8 -0,8
37 24.2.2018 18:30 0 32,2 0,5
38 24.2.2018 18:00 0 26,9 1,4
39 24.2.2018 17:30 0 23,9 2,1
40 24.2.2018 17:00 0 23,8 2,7
41 24.2.2018 16:30 0 25,9 2,9
42 24.2.2018 16:00 0 30,5 3,7
43 24.2.2018 15:30 0 34,1 4,5
44 24.2.2018 15:00 0 35,5 5,1
45 24.2.2018 14:30 0 37,8 6
46 24.2.2018 14:00 0 47,7 5,4
47 24.2.2018 13:30 0 50,5 4,7
48 24.2.2018 13:00 0 52,9 4,5
© 2011 Ministrstvo za kmetijstvo, gozdarstvo in prehrano. Vse pravice pridržane.